This demonstration page uses our WeatherBlox Daily Observations layout. Learn more.

40.92945, -100.16068

Hourly Observations for March 22, 2015

Temp ( °F °C ) Dew Point ( °F °C ) Humidity (%) Winds ( mph kmh ) Pressure ( in mb ) Visibility ( mi km ) Precip ( " mm )
12:15 am 00:15 Clear 55 12.7 29 -1.7 37 37 S 16 26 29.94 1014 10 16.0934 N/A
12:35 am 00:35 Clear 55 12.8 29 -1.6 37 37 S 18 30 29.94 1014 10 16.0934 N/A
12:55 am 00:55 Clear 55 12.8 29 -1.7 37 37 S 17 28 29.94 1014 10 16.0934 N/A
1:15 am 01:15 Clear 54 12.1 29 -1.5 39 39 S 17 28 29.97 1015 10 16.0934 N/A
1:35 am 01:35 Clear 53 11.6 30 -1.2 41 41 S 15 24 29.97 1015 10 16.0934 N/A
1:55 am 01:55 Clear 53 11.5 30 -1.1 42 42 S 15 24 29.97 1015 10 16.0934 N/A
2:15 am 02:15 Clear 51 10.6 30 -1 45 45 S 13 20 29.97 1015 10 16.0934 N/A
2:35 am 02:35 Clear 51 10.4 31 -0.8 46 46 SSW 13 20 29.97 1015 10 16.0934 N/A
2:55 am 02:55 Clear 50 10.1 30 -1 46 46 SSW 12 19 29.97 1015 10 16.0934 N/A
3:15 am 03:15 Clear 50 10.2 30 -1 46 46 SSW 15 24 29.97 1015 10 16.0934 N/A
3:35 am 03:35 Clear 50 10 31 -0.8 47 47 SSW 14 22 29.97 1015 10 16.0934 N/A
3:55 am 03:55 Clear 49 9.2 30 -0.9 50 50 SSW 9 15 30 1016 10 16.0934 N/A
4:15 am 04:15 Clear 48 9.1 31 -0.5 51 51 SSW 12 19 30 1016 10 16.0934 N/A
4:35 am 04:35 Clear 48 8.7 31 -0.5 53 53 SSW 9 15 29.97 1015 10 16.0934 N/A
4:55 am 04:55 Clear 46 8 32 -0.1 57 57 SSW 8 13 29.97 1015 10 16.0934 N/A
5:15 am 05:15 Clear 45 7.1 32 -0.1 61 61 S 3 6 29.97 1015 10 16.0934 N/A
5:35 am 05:35 Clear 44 6.7 32 0 63 63 S 3 6 29.97 1015 10 16.0934 N/A
5:55 am 05:55 Clear 44 6.8 32 0 62 62 Calm 29.97 1015 10 16.0934 N/A
6:15 am 06:15 Clear 45 7.2 32 0.2 61 61 S 5 7 29.97 1015 10 16.0934 N/A
6:35 am 06:35 Clear 36 2 28 -2 75 75 Calm 30.03 1017 10 16.0934 N/A
6:55 am 06:55 Clear 38 3.1 31 -0.7 76 76 SSE 5 7 29.97 1015 10 16.0934 N/A
7:15 am 07:15 Clear 40 4.7 33 0.4 74 74 SSE 5 7 29.97 1015 10 16.0934 N/A
7:35 am 07:35 Clear 40 4.5 32 0 73 73 SE 3 6 29.97 1015 10 16.0934 N/A
7:55 am 07:55 Sunny 35 1.4 28 -2.1 78 78 Calm 30 1016 10 16.0934 N/A
8:15 am 08:15 Sunny 34 1 28 -2.2 79 79 Calm 30 1016 10 16.0934 N/A
8:35 am 08:35 Sunny 37 3 30 -1.1 75 75 Calm 30.03 1017 10 16.0934 N/A
8:55 am 08:55 Sunny 42 5.7 33 0.4 69 69 Calm 29.94 1014 10 16.0934 N/A
9:15 am 09:15 Sunny 47 8.3 36 2 65 65 Calm 29.94 1014 10 16.0934 N/A
9:35 am 09:35 Sunny 54 12.1 40 4.2 59 59 SSW 5 7 29.91 1013 10 16.0934 N/A
9:55 am 09:55 Sunny 57 13.9 41 4.8 54 54 SW 9 15 29.88 1012 10 16.0934 N/A
10:15 am 10:15 Sunny 59 15.2 40 4.7 50 50 W 10 17 29.91 1013 10 16.0934 N/A
10:35 am 10:35 Sunny 60 15.8 41 4.8 48 48 WSW 9 15 29.85 1011 10 16.0934 N/A
10:55 am 10:55 Sunny 64 17.5 41 5 44 44 WSW 12 19 29.85 1011 10 16.0934 N/A
11:15 am 11:15 Sunny 66 18.8 41 4.8 40 40 WSW 10 17 29.83 1010 10 16.0934 N/A
11:35 am 11:35 Sunny 67 19.4 40 4.7 38 38 WSW 9 15 29.83 1010 10 16.0934 N/A
11:55 am 11:55 Sunny 68 20.2 40 4.5 36 36 SW 9 15 29.83 1010 10 16.0934 N/A
12:15 pm 12:15 Sunny 70 21.3 40 4.4 33 33 SSW 9 15 29.83 1010 10 16.0934 N/A
12:35 pm 12:35 Sunny 71 21.6 40 4.4 33 33 SW 10 17 29.83 1010 10 16.0934 N/A
12:55 pm 12:55 Sunny 72 22.3 40 4.3 31 31 WSW 6 9 29.83 1010 10 16.0934 N/A
1:15 pm 13:15 Sunny 73 22.9 37 2.9 27 27 W 13 20 29.8 1009 10 16.0934 N/A
1:35 pm 13:35 Sunny 69 20.8 35 1.9 29 29 NNW 21 33 29.85 1011 10 16.0934 N/A
1:55 pm 13:55 Sunny 71 21.5 36 2.1 28 28 N 17 28 29.85 1011 10 16.0934 N/A
2:15 pm 14:15 Sunny 67 19.6 33 0.4 28 28 NNW 18 30 29.85 1011 10 16.0934 N/A
2:35 pm 14:35 Sunny 67 19.5 33 0.4 28 28 NW 21 33 29.85 1011 10 16.0934 N/A
2:55 pm 14:55 Sunny 65 18.6 32 0 29 29 NNW 15 24 29.88 1012 10 16.0934 N/A
3:15 pm 15:15 Sunny 66 19.1 31 -0.3 27 27 NNW 18 30 29.88 1012 10 16.0934 N/A
3:35 pm 15:35 Sunny 66 19.1 30 -1 26 26 NNW 17 28 29.91 1013 10 16.0934 N/A
3:55 pm 15:55 Sunny 65 18.2 30 -1.2 27 27 NNW 20 31 29.91 1013 10 16.0934 N/A
4:15 pm 16:15 Sunny 64 18 29 -1.8 26 26 NNW 20 31 29.91 1013 10 16.0934 N/A
4:35 pm 16:35 Sunny 64 18 29 -1.9 26 26 NNW 20 31 29.91 1013 10 16.0934 N/A
4:55 pm 16:55 Sunny 63 17.1 28 -2.3 27 27 NNW 18 30 29.91 1013 10 16.0934 N/A
5:15 pm 17:15 Sunny 63 17 28 -2.5 26 26 NNW 23 37 29.94 1014 10 16.0934 N/A
5:35 pm 17:35 Sunny 62 16.5 27 -2.6 27 27 NNW 22 35 29.94 1014 10 16.0934 N/A
5:55 pm 17:55 Sunny 61 16.2 27 -2.6 28 28 NNW 18 30 29.97 1015 10 16.0934 N/A
6:15 pm 18:15 Sunny 59 15.2 27 -3 29 29 N 17 28 29.97 1015 10 16.0934 N/A
6:35 pm 18:35 Sunny 58 14.6 27 -3 30 30 N 16 26 30 1016 10 16.0934 N/A
6:55 pm 18:55 Sunny 58 14.2 26 -3.5 29 29 N 17 28 30 1016 10 16.0934 N/A
7:15 pm 19:15 Sunny 56 13.1 25 -3.8 31 31 N 16 26 30.03 1017 10 16.0934 N/A
7:35 pm 19:35 Sunny 54 12.1 25 -4 33 33 N 14 22 30.03 1017 10 16.0934 N/A
7:55 pm 19:55 Clear 51 10.6 24 -4.3 35 35 N 15 24 30.03 1017 10 16.0934 N/A
8:15 pm 20:15 Clear 48 8.9 24 -4.5 39 39 N 10 17 30.06 1018 10 16.0934 N/A
8:35 pm 20:35 Clear 45 7 24 -4.7 43 43 N 9 15 30.09 1019 10 16.0934 N/A
8:55 pm 20:55 Clear 43 6.1 24 -4.7 46 46 N 8 13 30.12 1020 10 16.0934 N/A
9:15 pm 21:15 Clear 43 6.2 24 -4.7 46 46 N 6 9 30.12 1020 10 16.0934 N/A
9:35 pm 21:35 Clear 41 4.9 23 -5 49 49 N 8 13 30.12 1020 10 16.0934 N/A
9:55 pm 21:55 Clear 39 3.8 23 -5.1 53 53 N 7 11 30.15 1021 10 16.0934 N/A
10:15 pm 22:15 Clear 39 3.7 23 -5 53 53 N 8 13 30.18 1022 10 16.0934 N/A
10:35 pm 22:35 Clear 39 4 23 -5.1 52 52 N 6 9 30.18 1022 10 16.0934 N/A
10:55 pm 22:55 Clear 38 3.2 23 -5.1 55 55 WNW 5 7 30.18 1022 10 16.0934 N/A
11:15 pm 23:15 Clear 39 3.7 22 -5.6 51 51 NNW 6 9 30.18 1022 10 16.0934 N/A
11:35 pm 23:35 Clear 35 1.4 20 -6.4 57 57 NNW 7 11 30.21 1023 10 16.0934 N/A
11:55 pm 23:55 Clear 35 1.7 21 -6.1 57 57 NNE 7 11 30.18 1022 10 16.0934 N/A

Powered by AerisWeather